TimeEST,TemperatureF,Dew PointF,Humidity,Sea Level PressureIn,VisibilityMPH,Wind Direction,Wind SpeedMPH,Gust SpeedMPH,PrecipitationIn,Events,Conditions,WindDirDegrees,DateUTC
1:56 AM,32.0,19.9,61,30.35,10.0,West,9.2,-,N/A,,Clear,260,2012-11-29 06:56:00
2:56 AM,33.1,21.0,61,30.37,10.0,West,8.1,-,N/A,,Clear,270,2012-11-29 07:56:00
3:56 AM,30.0,21.0,69,30.36,10.0,West,5.8,-,N/A,,Clear,260,2012-11-29 08:56:00
4:56 AM,28.9,21.0,72,30.36,10.0,West,5.8,-,N/A,,Clear,260,2012-11-29 09:56:00
5:56 AM,30.9,23.0,72,30.38,10.0,Calm,Calm,-,N/A,,Clear,0,2012-11-29 10:56:00
6:56 AM,30.0,21.9,72,30.38,10.0,WSW,5.8,-,N/A,,Clear,250,2012-11-29 11:56:00
7:56 AM,34.0,23.0,64,30.39,9.0,West,5.8,-,N/A,,Clear,270,2012-11-29 12:56:00
8:56 AM,35.1,25.0,67,30.40,9.0,West,4.6,-,N/A,,Clear,260,2012-11-29 13:56:00
9:56 AM,37.9,25.0,60,30.42,10.0,West,5.8,-,N/A,,Clear,270,2012-11-29 14:56:00
10:56 AM,39.9,26.1,58,30.43,10.0,West,9.2,-,N/A,,Clear,260,2012-11-29 15:56:00
11:56 AM,43.0,26.1,51,30.40,10.0,WSW,11.5,-,N/A,,Clear,240,2012-11-29 16:56:00
12:56 PM,43.0,25.0,49,30.38,10.0,WSW,11.5,-,N/A,,Clear,240,2012-11-29 17:56:00
1:56 PM,44.1,23.0,43,30.35,10.0,West,9.2,-,N/A,,Clear,260,2012-11-29 18:56:00
2:56 PM,45.0,23.0,42,30.34,10.0,West,5.8,-,N/A,,Clear,260,2012-11-29 19:56:00
3:56 PM,44.1,24.1,45,30.33,10.0,WSW,3.5,-,N/A,,Clear,240,2012-11-29 20:56:00
4:56 PM,42.1,24.1,49,30.33,10.0,Calm,Calm,-,N/A,,Clear,0,2012-11-29 21:56:00
5:56 PM,36.0,26.1,67,30.34,10.0,Calm,Calm,-,N/A,,Clear,0,2012-11-29 22:56:00
6:56 PM,33.1,23.0,66,30.34,10.0,Calm,Calm,-,N/A,,Clear,0,2012-11-29 23:56:00
7:56 PM,30.9,25.0,79,30.34,10.0,Calm,Calm,-,N/A,,Clear,0,2012-11-30 00:56:00
8:56 PM,33.1,24.1,70,30.34,10.0,Calm,Calm,-,N/A,,Clear,0,2012-11-30 01:56:00
9:56 PM,28.0,24.1,85,30.34,9.0,Calm,Calm,-,N/A,,Clear,0,2012-11-30 02:56:00
10:56 PM,28.0,23.0,81,30.34,8.0,Calm,Calm,-,N/A,,Clear,0,2012-11-30 03:56:00
11:56 PM,28.0,24.1,85,30.34,9.0,Calm,Calm,-,N/A,,Clear,0,2012-11-30 04:56:00